User: anonymous   Login
Location: Waldport
(44.4270°N, 124.0680°W)
Time: 03:50:42
(UTC-07:00)
Language:

Cosmos 1570 Rocket - Orbit

View from above orbital plane
View from above orbital plane
View from above satellite
View from above satellite

Ground track
Ground track

The orbit data is extracted from the following two-line orbital elements,

1 15032U 84056B   17206.01498043 -.00000044 +00000-0 -64051-5 0  9990
2 15032 074.0697 007.0671 0017118 162.5721 197.6022 14.34714470732070
Epoch (UTC): 25 July 2017 00:21:34
Eccentricity: 0.0017118
inclination: 74.0697°
perigee height: 764 km
apogee height: 788 km
right ascension of ascending node: 7.0671°
argument of perigee: 162.5721°
revolutions per day: 14.34714470
mean anomaly at epoch: 197.6022°
orbit number at epoch: 73207

The dashed part of the orbit path shows where the satellite is in the earth's shadow,  

DLR